Regional Weather Roundup
Issued by NWS

Home | Current Version | Previous Version | Text Only | Print | Product List | Glossary On
Versions: 1 2 3 4 5 6 7 8 9 10 11 12 13 14 15 16 17 18 19 20 21 22 23 24 25 26 27 28 29 30 31 32 33 34 35 36 37 38 39 40 41 42 43 44 45 46 47 48 49 50
000
ASUS43 KLSX 280207
RWRMO

WEATHER SUMMARY FOR MISSOURI
NATIONAL WEATHER SERVICE SPRINGFIELD MO
800 PM CST SAT DEC 27 2014

NOTE: "FAIR" INDICATES FEW OR NO CLOUDS BELOW 12,000 FEET WITH NO
       SIGNIFICANT WEATHER AND/OR OBSTRUCTIONS TO VISIBILITY.
       CURRENT SKY AND/OR WEATHER CONDITIONS ARE NOT AVAILABLE FOR
       CHILLICOTHE AND FARMINGTON.

MOZ001>031-035>038-043-044-053-054-280300-
...NORTHERN AND WESTERN MISSOURI...

CITY           SKY/WX    TMP DP  RH WIND       PRES   REMARKS
KANSAS CTY INT CLEAR     25  19  78 CALM      30.25S
KANSAS C DTWN  CLEAR     29  20  69 NW3       30.27S
LEE`S SUMMIT   CLEAR     26  19  74 N6        30.25F WCI  19
ST JOSEPH      CLEAR     23  19  85 W3        30.27F
CHILLICOTHE      N/A     29  20  69 NW7       30.27F WCI  22
KIRKSVILLE     CLOUDY    29  23  78 NW9       30.23S WCI  20

$$
MOZ066>068-077>081-088>096-101>105-280300-
...SOUTHWEST MISSOURI...

CITY           SKY/WX    TMP DP  RH WIND       PRES   REMARKS
SPRINGFIELD    CLOUDY    31  26  82 N13       30.23S WCI  21
JOPLIN         CLEAR     27  24  89 CALM      30.28R

$$
MOZ032>034-039>042-045>050-055>058-069>072-280300-
...CENTRAL MISSOURI...

CITY           SKY/WX    TMP DP  RH WIND       PRES   REMARKS
COLUMBIA       CLOUDY    32  26  78 NW9       30.24R WCI  24
JEFFERSON CITY CLOUDY    33  26  75 NW8       30.26R WCI  26
ROLLA          CLOUDY    31  29  92 NW10      30.20R WCI  22
SEDALIA        CLOUDY    31  23  72 NW8       30.27R WCI  23
WHITEMAN AFB   MOCLDY    28  21  74 N7        30.26R WCI  21
WARRENSBURG    CLEAR     28  21  74 CALM      30.27S
OSAGE BEACH    CLOUDY    32  25  74 N6        30.23F WCI  26

$$
MOZ051-052-059>065-280300-
...EAST CENTRAL MISSOURI...

CITY           SKY/WX    TMP DP  RH WIND       PRES   REMARKS
ST LOUIS INTL  CLOUDY    36  32  85 W8        30.21R WCI  30
SPIRIT OF STL  CLOUDY    35  33  92 W5        30.21R
ST CHARLES     CLOUDY    36  33  89 NW8       30.21R WCI  30

$$
MOZ072>076-082>087-097>100-106>115-280300-
...SOUTH CENTRAL AND SOUTHEAST MISSOURI...

CITY           SKY/WX    TMP DP  RH WIND       PRES   REMARKS
CAPE GIRARDEAU LGT RAIN  41  40  96 N9        30.17S FOG
FARMINGTON     CLOUDY    36  34  93 SE8       30.20R WCI  29
POPLAR BLUFF   LGT RAIN  42  39  89 N8        30.15F
WEST PLAINS    CLOUDY    35  31  85 N8        30.20S WCI  29

$$



USA.gov is the U.S. government's official web portal to all federal, state and local government web resources and services.